This is the latest recevied weather packets stored in our database for station/object N8TWM-13. If no packets are shown the sender has not sent any weather packets the latest 10 day(s).
| Time | Temp. | Humidity | Pressure | Rain* | Wind** | Luminosity | Snow |
|---|---|---|---|---|---|---|---|
| 1778081703 | 11.11° C | 68% | 1011.6 hPa | 0 mm | - | 649 W/m² | - |
| 1778081400 | 11.11° C | 71% | 1011.7 hPa | 0 mm | - | 223 W/m² | - |
| 1778081096 | 11.11° C | 70% | 1011.9 hPa | 0 mm | - | 121 W/m² | - |
| 1778080795 | 10.56° C | 72% | 1011.9 hPa | 0 mm | - | 453 W/m² | - |
| 1778080492 | 10.56° C | 70% | 1011.7 hPa | 0 mm | - | 626 W/m² | - |
| 1778080189 | 10° C | 73% | 1011.9 hPa | 0 mm | - | 544 W/m² | - |
| 1778079885 | 10° C | 71% | 1011.9 hPa | 0 mm | - | 313 W/m² | - |
| 1778079583 | 10° C | 72% | 1011.7 hPa | 0 mm | - | 378 W/m² | - |
| 1778079278 | 10.56° C | 73% | 1011.5 hPa | 0 mm | - | 507 W/m² | - |
| 1778078977 | 10.56° C | 73% | 1011.4 hPa | 0 mm | - | 487 W/m² | - |
| 1778078673 | 10° C | 73% | 1011.3 hPa | 0 mm | - | 482 W/m² | - |
| 1778078371 | 10.56° C | 73% | 1011.2 hPa | 0 mm | - | 648 W/m² | - |
| 1778078068 | 10° C | 73% | 1011.2 hPa | 0 mm | - | 855 W/m² | - |
| 1778077766 | 9.44° C | 74% | 1010.9 hPa | 0 mm | - | 447 W/m² | - |
| 1778077464 | 10° C | 74% | 1011.2 hPa | 0 mm | - | 322 W/m² | - |
| 1778077162 | 9.44° C | 76% | 1011.2 hPa | 0 mm | - | 371 W/m² | - |
| 1778076859 | 9.44° C | 76% | 1010.8 hPa | 0 mm | - | 378 W/m² | - |
| 1778076558 | 8.89° C | 77% | 1011 hPa | 0 mm | - | 305 W/m² | - |
| 1778076254 | 8.89° C | 78% | 1011.2 hPa | 0 mm | - | 277 W/m² | - |
| 1778075951 | 8.33° C | 77% | 1011 hPa | 0 mm | - | 255 W/m² | - |
| 1778075648 | 8.33° C | 80% | 1011 hPa | 0 mm | - | 242 W/m² | - |
| 1778075344 | 7.78° C | 82% | 1011.2 hPa | 0 mm | - | 294 W/m² | - |
| 1778075041 | 7.78° C | 83% | 1010.8 hPa | 0 mm | - | 215 W/m² | - |
| 1778074738 | 7.22° C | 84% | 1010.9 hPa | 0 mm | - | 210 W/m² | - |
| 1778074434 | 7.22° C | 86% | 1010.8 hPa | 0 mm | - | 173 W/m² | - |
* Rain latest hour (hover to see other rain measurements)
** Current wind speed in m/s (hover to see current wind gust speed)